Wind_Speed
105 102 99 94 86 80 77 77 79 81 83 82 81 80 81 82 81 82 79 75 78 80 78 76 75 77 76 72 72 73 71 68 66 64 63 62 61 59 58 56 56 55 52 51 50 48 46 46 46 46 45 45 43 42 40 39 39 38 38 38 39 41 44 45 44 45 45 44 44 44 43 42 41 42 44 46 48 48 49 50 48 46 48 49 47 46
108 104 97 89 83 81 81 84 86 86 84 82 81 79 79 80 80 82 82 78 81 83 79 78 78 78 77 73 73 73 71 68 65 64 63 63 61 60 58 57 56 54 53 52 50 49 48 47 46 47 47 46 44 42 40 39 38 39 39 39 40 42 44 43 41 42 42 41 42 43 43 44 44 46 47 46 47 49 49 47 46 51 56 57 55 54
108 101 93 88 87 89 89 89 88 85 83 82 81 79 80 81 81 83 82 80 83 84 82 81 79 79 78 75 74 72 69 68 67 65 63 62 60 59 58 57 56 55 54 52 51 51 50 48 48 48 48 47 45 43 40 39 39 40 40 39 39 42 44 42 40 41 41 40 41 41 42 43 44 45 47 46 45 44 45 47 52 59 60 55 52 52
106 98 93 94 95 94 91 88 86 83 83 83 82 82 82 82 82 81 80 80 82 85 85 82 80 80 79 76 74 71 69 69 68 65 63 62 60 60 60 58 56 56 54 53 53 52 50 49 50 50 49 47 45 43 41 40 41 42 39 36 36 38 43 43 41 41 41 41 41 41 43 45 45 45 46 43 39 40 46 53 57 58 55 50 47 50
107 101 100 101 98 93 89 87 85 84 85 84 85 84 83 82 82 81 81 81 82 86 87 84 84 83 78 75 74 71 69 68 67 65 63 62 61 61 60 58 58 57 55 54 54 53 52 51 51 50 50 48 46 44 43 43 44 42 39 36 35 39 44 46 44 42 42 45 47 47 47 49 48 47 48 44 40 45 52 56 56 55 54 50 49 54
110 106 105 102 97 92 90 89 87 86 86 85 85 84 83 82 81 81 81 81 83 86 86 86 87 83 77 75 74 71 70 68 66 64 62 62 62 61 59 59 60 58 55 55 55 54 53 52 52 51 50 49 47 46 45 46 45 42 40 38 37 43 48 47 48 47 47 49 50 49 50 51 49 45 43 44 46 50 55 57 56 55 54 53 55 59
113 109 106 102 98 96 94 92 89 87 86 85 84 83 83 82 80 82 81 81 83 84 84 86 86 82 79 76 73 70 70 69 66 63 62 62 61 60 60 61 59 57 56 56 55 54 54 53 52 52 51 49 48 47 47 48 46 42 41 38 37 46 51 49 48 49 51 52 52 53 54 54 51 44 44 51 55 56 58 60 56 53 54 57 59 58
114 109 106 103 101 100 97 93 89 87 87 86 84 83 83 82 81 82 81 81 84 84 84 84 84 83 79 76 74 72 71 70 67 63 62 61 60 60 62 61 58 56 56 55 55 54 53 53 52 52 51 50 49 48 49 49 45 41 40 38 38 47 53 50 49 51 53 55 56 57 58 57 56 52 54 59 58 54 55 55 53 52 54 55 53 51
112 108 106 104 102 100 96 93 90 89 89 88 85 83 84 83 82 82 82 83 84 85 83 82 83 82 77 75 75 73 71 69 65 63 62 62 62 62 63 61 58 56 56 55 55 54 53 52 52 51 51 50 50 49 49 49 46 40 39 40 43 48 51 50 52 54 56 59 60 61 61 61 61 60 61 60 52 49 50 49 47 47 47 46 47 49
111 110 109 107 104 101 97 95 93 91 91 90 85 84 84 84 83 83 83 84 85 84 80 79 80 78 75 75 74 73 70 66 64 65 65 64 64 65 64 61 58 57 57 56 55 54 53 52 52 51 51 51 50 50 50 50 48 44 43 45 47 49 51 53 56 57 59 61 61 62 61 61 62 61 61 58 52 49 49 46 44 42 43 47 51 52
112 112 111 108 106 102 99 97 93 92 93 90 86 85 86 85 84 84 84 84 84 81 76 76 77 76 75 73 72 70 68 67 68 69 68 67 66 65 64 61 59 58 58 58 57 55 54 53 52 52 52 51 51 51 51 51 50 49 49 51 52 52 53 56 58 59 60 61 61 61 60 60 59 58 57 55 50 48 45 44 44 44 48 53 54 52
110 112 111 109 106 103 100 97 93 94 94 90 87 88 88 86 86 85 85 84 82 77 75 77 77 76 73 69 68 68 67 69 72 71 71 70 69 68 66 63 61 60 59 58 57 56 55 54 54 54 53 52 52 52 52 52 52 52 53 54 54 54 56 57 58 59 60 59 59 59 58 57 54 51 49 47 45 43 43 44 46 49 52 54 53 51
107 110 110 108 106 102 100 97 96 97 94 90 90 91 89 87 86 86 85 82 78 76 77 78 77 74 69 65 65 66 66 68 70 71 72 72 71 71 68 65 63 61 60 59 57 57 56 56 56 56 55 54 54 54 54 54 55 56 56 56 55 55 56 57 57 59 58 57 57 55 51 49 47 45 44 43 42 42 43 46 48 49 49 50 50 50
105 108 108 107 105 102 100 98 98 96 91 89 90 89 86 85 84 82 81 78 76 77 77 76 74 71 67 64 63 64 64 66 68 69 71 71 72 71 69 67 64 62 60 59 58 59 59 59 58 57 57 56 56 55 55 56 57 58 57 56 55 54 56 57 57 57 56 54 52 47 42 41 43 43 43 43 42 43 44 46 47 47 47 48 48 46
103 105 106 105 103 102 100 98 96 93 89 88 88 87 86 84 81 79 78 77 77 78 76 75 73 69 66 64 61 62 64 65 66 67 68 69 69 69 68 66 64 62 61 61 61 62 62 61 60 59 58 58 57 56 57 58 59 59 58 57 56 55 56 56 56 54 52 49 46 43 41 41 42 42 43 43 43 44 44 45 46 47 47 45 44 43
100 103 104 105 103 101 100 98 97 94 91 91 91 90 87 84 81 80 80 78 78 77 73 71 70 67 65 62 58 61 64 63 64 65 65 66 67 67 66 64 63 62 62 63 65 65 64 63 62 61 60 59 58 58 58 59 59 59 58 57 56 55 54 53 52 50 48 44 40 39 39 41 41 42 43 44 44 45 45 45 47 47 45 43 42 42
98 101 104 104 102 101 99 98 97 94 93 93 92 89 86 84 83 82 80 78 77 75 70 68 68 65 63 61 58 61 64 63 63 64 63 64 65 64 63 61 61 60 62 64 65 65 65 63 63 62 61 60 59 59 59 59 59 58 57 55 54 52 50 49 49 47 44 41 38 36 36 38 40 41 42 42 44 45 45 46 46 45 44 43 43 44
96 100 102 101 101 101 100 98 97 96 95 93 90 88 87 87 84 80 78 77 76 74 71 69 67 65 64 62 60 61 63 63 63 63 63 63 63 61 60 59 57 58 60 61 62 62 62 62 62 62 61 60 58 58 57 57 56 55 54 52 51 49 46 46 47 44 42 41 40 39 38 38 39 40 41 43 44 45 45 45 45 44 44 44 46 47
93 98 101 101 101 101 101 99 98 98 96 92 90 90 89 86 82 79 77 75 74 73 70 67 67 65 64 61 59 60 62 62 63 63 63 62 61 59 59 57 56 57 57 58 58 60 60 60 59 58 57 56 55 54 54 54 53 51 50 49 48 47 45 45 45 43 41 41 42 43 43 42 42 41 42 43 44 44 45 44 44 43 43 45 47 48
91 96 100 101 102 102 102 100 99 97 94 91 91 90 86 83 81 79 77 73 71 70 68 66 65 63 61 59 58 58 60 61 62 63 63 61 61 59 58 57 57 57 57 57 58 58 57 56 55 54 54 52 51 51 50 50 50 48 47 47 46 46 45 45 45 44 42 41 41 42 43 43 43 43 44 45 46 46 45 44 43 43 43 44 46 47
89 94 99 101 102 101 100 98 96 94 91 90 88 85 83 82 80 77 74 71 69 68 67 65 63 60 60 59 57 56 59 60 60 61 62 61 61 60 58 57 57 56 57 57 57 55 53 52 51 51 51 49 48 48 48 48 48 46 46 46 47 46 47 47 46 45 45 44 44 45 46 46 46 47 48 48 47 47 45 44 44 43 43 44 45 47
87 93 97 99 99 99 98 96 94 92 90 88 86 83 82 81 78 75 73 69 68 68 67 64 62 61 61 58 56 56 59 60 59 59 60 60 60 60 59 58 57 57 57 56 54 52 51 49 49 50 49 48 47 47 47 47 46 46 46 47 47 48 48 48 47 47 47 47 48 49 51 51 51 51 50 48 48 47 46 45 45 44 45 46 47 48
85 91 94 96 97 97 97 95 94 92 90 88 86 84 83 80 76 73 71 69 69 68 66 63 62 62 60 57 57 58 59 61 60 59 59 59 59 59 59 58 58 58 57 55 53 51 50 49 49 50 50 48 47 47 47 47 46 46 46 47 47 48 49 48 48 48 49 49 49 49 50 51 50 50 49 48 48 48 47 46 46 46 47 48 49 50
83 88 92 95 96 96 95 95 94 92 90 88 85 84 82 79 76 74 73 72 70 65 62 61 62 62 60 58 59 59 60 62 62 61 60 59 59 59 59 59 59 59 57 54 53 52 51 50 50 51 51 50 48 48 47 47 46 46 46 46 47 47 48 48 48 48 48 48 49 49 49 49 48 48 48 48 49 49 48 48 48 48 49 50 51 52
81 86 90 93 94 94 94 94 93 90 87 84 83 82 81 80 79 77 75 71 67 63 62 63 63 61 59 59 59 59 60 62 63 62 61 60 60 59 58 59 60 59 57 55 54 53 52 52 52 52 52 51 49 48 48 47 46 45 45 46 46 46 46 46 46 47 47 47 47 48 48 47 47 48 48 49 49 49 49 50 50 51 51 52 53 54
78 83 87 91 91 90 90 88 87 86 84 83 83 82 81 79 76 74 71 68 65 64 63 63 62 61 61 61 59 59 60 62 63 63 62 61 59 58 58 60 60 59 57 55 55 55 54 53 53 53 53 51 50 49 48 47 45 45 45 45 45 45 44 44 44 44 43 43 44 45 45 46 46 47 47 48 49 50 50 50 51 51 52 53 53 54
74 79 84 87 89 89 89 87 85 84 82 81 80 78 77 75 72 70 68 64 63 63 62 62 62 63 64 62 60 59 60 61 62 62 62 61 59 58 58 60 60 59 57 57 56 56 55 54 54 54 53 52 50 49 48 47 45 44 44 44 43 43 42 41 41 41 41 41 42 42 43 43 44 44 45 46 47 48 49 49 50 51 52 52 53 54
70 76 80 84 87 89 89 88 86 83 80 78 77 75 74 72 70 68 65 62 63 62 60 61 63 64 64 62 61 61 60 61 61 61 61 60 58 57 58 59 59 59 59 58 58 57 55 55 55 54 53 52 50 49 48 46 44 43 43 43 42 42 41 40 40 39 39 40 40 40 40 41 41 42 43 43 44 45 46 48 49 50 51 52 52 53
67 72 77 81 84 85 85 84 83 82 81 80 78 77 74 72 68 65 62 62 62 60 59 61 62 63 64 63 62 62 61 60 60 60 60 59 58 58 57 57 57 58 59 59 59 58 57 56 55 54 53 52 50 48 47 45 44 43 43 43 42 41 41 40 40 39 39 39 39 40 40 40 40 41 41 42 42 44 45 47 48 49 50 51 51 52
64 69 73 77 80 82 83 83 81 80 79 78 77 75 74 71 69 66 64 62 61 60 60 60 59 61 63 63 62 61 60 61 60 59 59 59 58 58 57 57 57 58 60 61 61 59 57 56 55 54 53 52 50 49 47 46 44 43 43 42 42 41 41 41 40 40 39 40 40 40 40 40 41 41 41 42 43 44 45 46 48 49 49 50 50 50
62 66 69 73 76 78 80 80 80 79 78 77 76 74 72 70 68 66 65 63 61 60 60 58 57 60 62 61 60 59 60 60 60 59 59 58 58 59 58 57 57 59 61 62 60 58 56 56 56 56 54 52 51 49 48 47 45 44 43 42 42 42 42 41 41 41 41 41 41 41 41 41 41 41 42 42 43 44 45 46 47 48 49 49 49 50
59 62 65 68 72 75 77 78 79 79 78 78 75 73 70 67 64 63 63 62 60 59 59 58 57 60 62 61 59 59 59 60 60 60 59 59 59 59 58 57 58 60 62 60 57 56 57 58 58 57 55 53 51 50 49 48 46 44 43 43 43 43 42 42 42 41 41 41 40 41 41 41 41 42 42 42 43 44 45 45 46 47 48 48 48 49
56 58 60 64 67 71 73 75 76 77 76 74 71 69 68 65 63 62 60 59 58 58 58 56 57 61 63 61 59 59 59 59 59 59 59 59 59 59 59 59 59 60 58 56 55 57 59 60 59 58 56 54 53 52 51 49 47 45 44 43 44 44 43 42 42 42 41 41 41 41 41 41 41 41 42 42 43 44 44 45 46 47 48 48 48 48
53 54 57 59 62 65 68 70 71 71 69 67 67 67 67 66 64 62 59 58 58 58 57 57 58 62 62 59 58 59 58 57 57 57 58 59 59 59 60 60 59 58 56 55 56 58 60 60 60 58 57 55 54 53 52 50 48 46 45 45 45 44 43 42 42 42 42 41 41 41 41 41 41 41 42 42 43 44 45 46 46 47 47 48 48 48
51 52 54 55 58 60 62 64 64 63 63 64 66 67 66 65 64 62 60 59 59 58 58 58 59 61 60 58 57 57 56 56 56 56 56 57 59 60 60 60 58 56 55 55 57 59 60 59 59 58 56 55 54 54 52 51 50 48 47 46 45 45 44 43 42 42 42 42 42 41 41 41 41 41 42 43 44 45 45 46 46 46 46 47 47 47
50 50 51 53 54 56 57 58 58 59 61 63 64 63 63 62 61 60 59 58 57 57 58 59 59 60 60 58 55 54 55 55 55 55 56 57 58 60 61 60 57 56 55 56 57 58 58 57 57 57 56 55 54 53 53 52 51 50 48 47 46 45 44 43 43 42 42 42 42 41 41 41 41 42 43 44 45 45 45 45 45 45 46 46 46 46
49 50 51 51 52 53 53 54 55 57 59 60 59 59 60 59 58 58 58 58 58 58 59 59 59 59 59 56 54 54 55 55 56 57 57 58 59 61 61 60 57 55 55 55 56 57 57 57 56 55 54 53 53 52 52 52 51 50 48 47 45 44 44 43 43 43 43 42 42 41 41 41 42 43 44 44 45 45 45 45 44 45 45 45 45 44
49 50 51 52 51 51 51 52 54 55 57 57 57 56 57 57 58 58 59 59 59 59 59 59 58 58 57 56 54 54 54 56 57 58 58 58 58 59 60 59 58 57 56 55 55 56 56 55 53 52 52 51 51 51 51 51 51 50 48 46 45 44 44 44 44 43 43 42 42 41 42 42 43 44 44 45 44 44 44 44 44 44 45 45 45 44
50 51 51 51 51 51 51 52 53 55 55 56 56 55 55 56 57 58 58 58 58 58 59 59 58 57 56 55 54 54 55 56 57 58 58 57 57 57 58 58 58 58 57 56 56 55 54 52 51 51 50 50 50 50 50 50 50 49 48 46 46 45 45 44 44 43 43 43 43 43 43 43 43 44 44 45 44 44 44 43 44 44 45 45 45 46
50 51 51 51 52 52 52 52 53 54 55 55 55 55 55 56 57 57 57 58 58 59 59 59 58 56 55 54 54 55 56 58 59 58 57 56 54 55 57 58 57 57 57 56 55 54 53 52 51 49 48 48 48 48 48 49 49 49 48 47 46 46 45 44 43 43 43 44 44 44 44 43 44 44 44 44 44 44 43 44 44 45 45 46 46 46
50 50 50 51 51 52 52 53 54 54 54 54 55 56 56 56 55 56 57 58 59 60 60 60 59 57 54 54 55 57 59 62 62 60 57 55 53 54 56 57 57 57 55 54 54 54 54 53 51 49 48 47 47 47 48 48 49 49 48 47 46 46 45 43 43 44 44 44 44 44 44 44 44 44 44 44 44 44 44 44 45 45 45 46 47 47
50 50 50 51 52 52 52 53 53 53 54 54 54 55 56 55 55 56 58 59 60 60 60 59 58 57 56 56 58 59 60 62 63 61 59 57 55 55 56 57 57 57 56 55 55 54 53 52 51 49 48 47 47 47 47 48 49 49 48 47 46 46 45 45 45 46 45 44 44 44 45 45 44 44 44 44 44 44 45 45 45 45 46 46 47 47
51 51 52 52 53 54 54 54 54 53 54 54 54 54 55 55 56 59 60 59 59 60 60 59 58 57 57 59 60 60 60 62 63 63 62 60 58 58 58 57 55 55 55 56 55 53 52 51 50 49 49 48 47 47 48 48 49 49 48 47 47 47 47 47 47 46 45 45 45 45 45 45 45 44 44 44 45 45 45 46 46 46 46 47 47 48
52 52 53 54 54 56 57 56 55 55 56 56 56 55 56 57 58 59 59 59 59 59 59 59 58 57 58 60 61 61 61 62 63 64 64 63 60 58 56 55 54 54 54 54 53 52 51 50 50 50 49 49 48 47 47 48 49 49 48 48 48 49 48 47 46 46 46 46 46 46 45 45 45 45 45 45 45 46 46 47 47 47 47 47 48 48
51 53 54 55 56 57 57 58 58 58 58 58 58 59 59 59 58 58 59 58 59 59 59 58 57 57 59 61 62 61 61 61 62 63 64 63 61 58 55 54 54 55 56 55 53 51 51 51 50 50 50 49 49 48 48 48 49 49 49 49 49 49 48 48 47 46 46 46 46 46 46 46 46 46 46 46 46 47 47 48 48 48 49 49 49 49
49 52 54 56 57 57 57 58 59 59 59 60 60 60 60 59 59 59 59 59 59 59 57 57 57 58 60 62 62 62 62 61 61 62 63 62 61 58 56 55 54 55 57 55 53 51 50 50 51 51 51 51 50 48 48 48 49 49 50 50 50 49 49 48 47 47 47 46 46 46 47 47 47 46 46 47 47 48 48 48 49 50 50 50 50 50
45 48 50 52 54 56 56 56 56 57 58 59 58 57 57 57 58 59 58 57 57 57 56 57 58 59 61 62 62 62 63 62 62 62 62 62 62 60 59 59 58 58 58 55 52 51 50 49 50 52 52 52 51 49 48 48 49 50 51 51 50 49 50 49 48 47 47 47 47 48 47 48 48 47 47 48 48 49 49 50 51 51 51 52 51 51
41 43 45 47 50 52 53 54 54 53 54 53 52 51 52 53 54 55 54 54 54 55 56 57 59 60 61 62 62 62 63 63 63 63 62 63 63 62 61 61 61 60 59 56 54 52 51 51 52 52 53 53 52 50 49 49 50 52 52 51 51 50 50 49 48 48 49 48 48 48 48 48 48 48 48 48 49 50 50 51 51 52 53 53 53 54
38 40 41 43 45 47 49 51 51 50 49 47 46 47 48 49 49 49 49 51 52 54 57 58 59 60 61 62 62 62 62 63 63 64 64 64 64 63 63 62 62 60 59 57 55 54 54 54 54 54 54 55 54 52 50 50 51 52 52 51 51 51 51 50 49 49 49 49 48 48 48 48 48 48 49 50 51 51 51 52 52 53 54 54 55 56
36 37 37 39 42 45 47 47 48 47 45 43 44 46 46 46 47 46 47 49 51 54 56 57 58 59 60 61 61 62 62 62 63 63 64 65 65 64 64 63 62 61 60 58 56 55 56 56 56 56 56 56 55 53 51 51 52 52 52 52 52 51 51 50 50 50 50 50 49 48 48 48 49 50 51 52 52 52 52 53 53 54 54 55 56 57
36 35 34 37 41 44 45 45 45 46 44 41 43 47 48 48 47 47 47 48 49 51 53 54 55 57 59 60 61 62 62 63 63 63 64 64 65 65 65 64 63 62 61 59 57 57 57 56 56 56 57 57 55 52 52 53 53 53 53 53 52 51 51 51 51 51 51 51 50 49 49 50 51 52 53 53 54 54 54 54 54 55 56 56 57 58
Wind_Direction
228 228 228 228 229 230 231 230 229 228 227 226 226 225 225 224 224 226 225 224 229 232 232 232 232 233 232 231 234 236 237 238 240 241 243 243 244 244 245 245 245 246 247 248 249 250 250 250 252 254 255 257 258 259 261 263 265 266 266 264 264 264 266 269 273 275 276 276 274 275 278 280 279 281 284 287 290 291 292 294 295 295 299 302 299 294
227 227 227 227 227 228 227 227 226 226 226 225 225 225 225 225 224 226 225 222 226 230 230 230 231 232 232 230 233 236 237 238 239 240 242 243 244 245 246 246 247 248 248 249 250 250 250 250 251 253 254 256 258 260 261 263 265 265 263 262 265 267 269 272 274 273 274 274 274 275 276 275 276 279 282 288 294 297 295 293 292 294 297 297 294 290
227 226 226 226 225 225 224 224 225 225 225 225 225 224 224 225 223 225 225 222 225 228 229 230 230 232 232 231 232 235 236 237 238 239 241 243 245 246 247 247 247 248 248 249 250 250 250 250 251 252 254 256 257 259 261 262 262 260 260 264 268 270 270 271 269 270 274 275 274 275 275 275 277 278 281 288 295 295 291 289 291 293 295 294 291 287
226 225 224 224 224 224 224 225 225 224 224 224 223 223 223 224 224 224 225 224 225 228 229 229 230 231 232 231 232 234 236 237 238 239 241 243 245 246 246 247 247 248 248 249 249 249 249 250 250 251 253 255 256 258 259 259 257 257 261 266 266 266 268 269 269 270 274 275 273 273 275 277 278 277 280 284 285 285 284 287 292 294 293 292 290 287
224 222 222 223 223 223 224 224 225 224 223 223 223 223 223 223 224 223 223 224 224 226 228 228 229 231 231 232 233 233 235 237 238 239 240 242 244 245 247 247 248 248 248 248 248 249 249 249 250 251 252 254 256 257 257 256 256 258 261 261 261 262 265 269 270 270 271 273 273 274 277 281 282 281 282 280 277 280 284 288 291 291 290 289 286 287
222 221 220 221 222 222 223 223 223 223 223 223 223 223 224 224 223 224 223 224 225 226 228 228 229 230 230 231 232 233 235 236 238 239 240 241 243 245 247 247 248 248 248 248 248 248 248 249 250 251 252 254 255 255 255 255 256 258 259 259 261 263 264 265 268 269 269 271 272 273 277 283 286 288 287 284 283 285 286 289 290 287 285 282 281 285
221 220 220 220 219 220 221 222 222 222 222 223 223 223 224 223 223 224 223 224 226 226 227 229 230 230 230 230 231 232 234 235 236 238 239 241 243 245 246 246 247 248 248 248 248 249 249 249 250 251 253 254 255 254 254 255 256 257 259 260 260 262 264 265 266 268 269 269 271 273 277 281 282 282 281 282 285 286 285 289 289 284 279 279 280 284
219 219 219 219 218 218 219 220 220 221 222 222 222 223 224 223 223 224 223 224 226 226 227 228 230 230 230 230 231 232 233 235 236 237 239 241 242 243 244 245 246 246 247 248 249 249 249 250 250 252 253 254 254 254 254 255 256 256 259 259 255 258 264 267 265 265 267 270 272 275 277 279 279 277 278 282 283 282 284 288 287 280 276 277 280 284
218 218 218 218 218 218 218 219 219 219 220 221 220 221 223 223 223 223 223 223 225 226 226 228 230 230 230 231 231 232 233 235 236 238 239 240 241 242 243 244 244 245 246 247 248 249 249 250 250 251 253 253 254 254 255 255 255 253 254 254 254 258 263 265 265 265 267 270 273 275 276 278 278 278 280 282 281 280 284 285 281 277 275 276 281 287
216 216 217 216 217 217 217 218 218 218 220 220 219 220 222 222 222 223 223 224 225 226 226 228 230 231 230 231 232 232 234 236 237 238 238 239 240 241 243 243 244 245 246 247 248 248 249 250 251 251 252 253 254 254 255 256 255 253 252 252 255 259 261 262 265 267 269 270 272 274 276 277 279 279 280 281 280 280 282 279 275 274 275 279 285 288
213 214 215 215 215 215 215 216 218 218 220 219 218 219 221 221 221 222 223 224 225 225 226 228 230 230 229 230 231 232 233 234 235 235 236 237 239 241 242 243 243 244 245 246 247 248 249 250 251 251 252 253 254 255 256 257 257 256 255 256 258 260 261 263 266 268 269 271 273 275 276 278 279 280 280 280 279 277 274 270 268 269 273 279 283 285
211 212 213 214 215 215 215 215 216 218 220 218 217 219 220 221 221 222 223 224 224 225 225 227 229 230 229 229 230 232 232 232 234 234 235 236 237 239 240 241 242 243 244 246 247 249 249 250 251 251 252 253 254 256 257 258 259 259 259 259 261 262 263 265 266 268 269 271 273 276 277 278 278 278 278 277 274 271 267 264 266 270 275 280 282 284
210 211 212 213 213 214 214 214 215 218 219 218 218 219 219 221 221 222 223 225 225 225 225 227 228 229 229 228 230 231 232 233 234 235 236 236 237 239 240 241 242 243 245 246 248 249 250 250 250 251 252 253 255 256 258 259 260 261 261 262 263 264 265 266 267 268 270 272 274 276 276 275 274 273 274 273 269 267 267 269 274 278 280 281 282 284
209 210 211 212 212 212 213 214 216 218 218 219 220 220 221 222 223 224 225 225 226 226 226 227 228 228 228 227 228 230 231 232 234 235 236 237 238 240 241 242 243 244 246 247 248 249 249 249 250 251 252 254 255 257 258 260 261 262 263 264 265 265 266 267 268 269 272 273 274 273 271 269 270 270 271 271 269 270 273 277 281 282 282 282 282 283
208 208 209 211 211 212 213 214 215 217 218 219 220 221 221 222 223 224 225 225 226 226 226 227 228 227 227 226 227 230 231 232 234 235 236 238 239 241 242 243 244 245 246 246 247 247 248 249 250 252 253 254 256 257 258 260 261 263 265 266 267 267 267 268 268 270 271 271 268 266 264 265 267 268 269 270 272 276 280 282 283 283 283 282 282 283
206 207 208 209 210 211 212 213 214 215 216 217 219 219 220 221 221 222 223 223 224 225 225 227 228 227 227 226 226 229 232 232 233 235 236 238 240 241 242 242 243 244 244 245 246 247 248 249 251 252 254 255 256 257 259 260 262 264 265 266 266 266 267 267 268 267 267 266 263 262 263 263 263 263 266 270 275 280 282 283 283 283 283 282 281 281
205 205 206 208 208 210 211 212 214 215 216 217 218 218 219 219 220 221 222 223 224 225 224 225 227 226 226 225 223 228 231 231 233 234 236 237 239 240 241 241 242 242 243 244 245 247 248 250 251 252 254 255 256 258 259 261 262 263 264 265 265 265 265 265 265 264 263 262 261 261 264 263 262 263 266 270 276 281 282 282 282 282 281 279 278 277
203 204 205 206 207 209 210 212 213 215 216 217 218 218 218 219 220 221 222 223 224 225 224 224 226 226 225 224 224 227 230 231 232 234 235 236 238 239 240 240 240 241 242 243 245 247 248 249 250 252 253 255 256 257 258 260 260 261 262 262 262 262 261 261 262 262 262 262 261 261 264 263 263 265 268 273 277 279 280 281 281 280 279 277 276 277
202 202 204 205 206 208 210 211 213 214 215 216 217 218 218 219 219 220 222 223 224 225 224 225 226 226 226 225 224 228 231 231 232 234 234 236 237 238 238 239 238 239 240 242 243 245 246 247 249 251 252 254 255 255 256 257 258 258 259 260 260 260 259 259 261 262 261 262 261 260 262 262 263 265 269 273 276 277 279 281 281 280 279 278 278 279
202 201 202 204 206 207 209 210 212 214 215 216 217 217 218 219 219 220 221 222 223 225 224 224 226 227 226 225 224 228 231 232 233 234 235 236 237 237 237 238 238 238 239 240 242 244 246 248 249 251 251 252 252 253 253 254 255 256 257 258 259 259 259 260 261 261 259 259 258 258 259 258 259 263 269 274 276 277 280 281 281 281 281 280 281 281
201 201 202 204 205 207 208 210 212 214 215 217 218 218 218 219 219 220 221 222 223 224 223 223 224 225 225 224 223 226 231 232 233 234 235 236 237 237 237 238 238 239 239 241 243 245 246 248 248 249 249 249 250 250 251 252 253 255 256 257 258 259 260 260 260 260 258 257 258 259 259 259 261 266 271 275 277 279 280 281 281 281 281 281 282 282
201 201 202 204 205 206 208 210 212 214 215 216 217 218 219 219 219 220 221 222 224 224 224 223 223 225 225 224 223 225 230 232 232 234 235 235 237 238 238 238 239 239 240 241 243 245 245 246 246 247 248 248 248 249 250 251 253 254 256 257 259 260 260 260 260 260 258 259 260 261 262 264 266 270 273 275 277 278 279 280 281 281 281 282 282 283
200 201 202 203 205 206 208 209 211 213 214 215 216 216 218 218 219 220 221 222 223 224 224 223 224 226 226 225 224 224 228 232 232 233 234 235 236 237 238 239 239 240 241 242 243 244 244 244 245 247 247 247 247 248 250 251 253 254 256 257 258 259 261 261 261 261 261 261 262 264 265 267 269 271 272 274 275 276 277 279 280 281 281 281 282 283
200 201 202 203 205 206 208 209 211 212 213 214 215 216 217 217 217 218 219 220 222 223 223 222 223 225 225 225 224 224 226 230 231 232 233 234 235 236 237 238 239 240 241 242 242 243 243 243 244 246 247 248 248 249 250 252 253 254 256 257 258 259 260 261 261 262 262 263 264 265 267 268 270 271 272 272 273 275 277 278 280 281 281 282 282 283
200 200 201 203 205 206 208 209 211 212 213 214 215 216 217 218 217 218 218 219 220 221 221 221 221 223 224 224 225 224 226 229 231 232 233 234 234 235 236 238 239 240 241 241 241 242 242 243 244 246 247 248 249 249 250 252 253 254 255 257 258 259 260 262 262 263 264 265 266 267 269 270 270 271 271 272 273 275 277 278 280 281 282 282 283 283
199 200 201 203 204 206 208 210 212 213 214 214 216 216 217 218 219 220 220 220 220 221 220 220 220 222 223 224 224 225 226 229 231 231 232 233 234 235 236 237 239 240 240 240 241 241 242 243 244 246 247 248 249 250 251 252 253 254 255 256 258 260 261 263 264 266 267 268 269 270 270 271 272 272 272 273 274 276 277 279 280 281 282 282 283 283
199 200 201 203 204 205 207 209 211 213 214 215 216 217 219 219 219 220 221 221 222 223 222 221 220 222 224 224 224 225 226 229 230 231 232 233 234 235 236 237 239 240 240 240 241 241 242 243 244 245 247 249 250 251 251 252 253 254 255 257 258 261 262 264 266 268 269 270 270 271 272 272 272 273 273 274 276 277 279 280 281 281 282 282 283 283
199 200 201 203 204 205 207 208 209 211 213 214 215 217 218 219 219 219 220 220 222 224 224 223 223 224 225 224 225 226 227 229 230 231 232 234 234 236 237 238 239 240 240 241 241 241 242 242 244 246 247 249 250 251 252 252 253 254 256 257 259 261 263 265 267 268 269 270 271 272 273 273 274 274 276 277 278 280 281 281 281 281 281 282 283 284
199 201 202 203 204 206 207 209 210 211 212 213 214 215 216 217 217 218 219 220 222 223 224 224 224 226 227 226 226 227 228 229 231 231 232 233 234 236 238 239 240 240 241 241 242 242 242 244 245 247 248 249 250 251 252 253 253 255 257 258 260 262 264 266 267 269 271 272 274 274 275 276 277 278 279 280 280 281 281 280 281 281 282 283 284 286
199 201 203 204 205 206 207 209 210 212 213 214 215 216 216 216 216 216 216 218 219 221 222 224 224 226 228 228 228 229 230 231 232 232 232 233 234 236 238 239 239 240 241 241 242 242 244 246 247 247 248 249 250 251 253 254 255 256 258 259 261 263 265 267 269 271 273 274 276 277 278 279 280 280 280 280 280 281 281 281 282 282 284 285 286 288
198 201 203 205 206 207 208 209 210 212 213 214 215 216 217 217 217 217 217 217 218 219 221 221 222 225 228 228 228 229 230 232 232 232 232 232 233 235 237 238 239 240 240 240 242 243 245 246 247 247 247 249 250 251 253 254 255 256 258 260 261 263 265 267 269 271 273 275 277 278 279 279 280 280 280 280 281 281 282 282 283 284 285 286 288 289
198 200 202 205 206 208 209 210 211 212 213 214 214 215 216 217 217 218 219 219 218 219 220 220 221 224 227 227 227 228 230 231 232 232 232 231 232 233 236 237 239 239 240 241 243 244 245 245 246 247 248 249 250 251 253 254 255 256 258 260 262 263 265 267 269 272 273 275 277 278 278 278 279 280 280 281 281 282 282 283 283 284 286 287 289 291
196 198 201 204 206 208 210 211 212 213 214 214 215 216 216 216 216 217 218 219 219 219 219 219 220 224 227 226 226 227 228 230 232 233 233 232 232 233 235 237 238 240 241 242 243 244 244 245 247 248 248 249 250 252 253 255 255 256 257 259 261 263 265 267 270 272 273 275 276 276 277 279 280 281 281 281 281 282 283 283 284 286 287 289 291 293
194 196 200 203 205 208 210 211 213 214 215 215 216 216 217 216 216 215 215 216 217 217 217 217 220 225 227 227 226 226 227 229 231 233 234 233 233 234 236 238 239 241 242 242 242 243 244 245 247 248 249 250 251 252 253 254 255 256 257 259 261 263 265 268 270 272 273 275 276 277 278 280 280 281 281 281 281 282 283 284 286 288 290 292 293 294
192 195 198 201 204 207 209 211 212 213 214 215 216 216 216 216 215 215 214 215 215 214 215 216 219 225 228 227 227 227 227 227 229 231 233 233 233 234 236 238 240 241 242 242 243 243 245 246 248 249 250 251 252 253 254 254 255 256 257 258 260 262 265 267 269 272 274 275 277 278 279 279 280 280 280 280 281 283 285 286 288 290 291 293 294 295
191 193 196 200 202 205 207 208 209 210 212 214 215 215 215 215 215 214 214 215 215 215 216 217 220 224 228 228 227 226 226 226 226 228 230 232 233 234 236 238 239 241 242 243 244 245 246 247 248 249 250 251 252 253 254 255 255 256 257 258 260 262 265 267 270 272 274 275 276 277 278 278 278 279 279 280 282 284 286 288 289 291 292 293 294 295
190 192 195 198 200 202 204 205 206 208 210 212 213 213 214 213 213 212 212 213 213 214 216 218 221 225 228 229 228 226 225 224 224 225 229 231 232 234 236 237 239 241 242 243 244 245 246 246 247 249 250 251 252 253 254 255 255 256 257 258 260 262 265 267 269 271 273 274 275 276 277 277 277 278 279 281 283 285 287 288 290 291 291 292 294 295
191 193 195 196 198 200 201 203 204 207 209 210 211 212 212 212 211 211 211 212 212 213 215 217 221 225 228 228 227 225 224 223 223 225 228 231 233 235 237 238 239 240 242 243 244 245 246 247 249 251 251 252 252 253 253 254 255 256 257 258 259 261 264 266 268 270 272 273 274 275 275 276 277 278 280 282 284 285 287 289 290 290 291 292 294 294
192 194 195 196 196 198 200 201 204 206 208 209 209 210 211 212 211 211 212 213 213 214 215 217 219 223 227 227 225 224 222 220 221 225 228 230 233 236 238 239 239 240 242 243 244 246 248 249 250 251 252 252 253 253 254 254 255 256 256 257 258 260 262 265 267 270 271 273 273 274 275 276 277 279 281 283 284 285 287 288 289 290 291 293 294 294
193 195 196 196 197 197 199 201 204 207 208 209 209 209 211 212 212 213 213 214 215 216 217 219 220 223 226 226 223 221 219 219 219 223 226 228 231 235 239 240 240 241 242 244 246 247 248 249 250 251 252 253 253 254 254 255 255 256 256 256 257 259 261 264 267 269 270 271 272 273 275 276 278 279 281 283 284 286 287 288 289 290 291 293 294 295
195 195 196 197 198 199 200 202 204 206 208 209 209 210 212 213 213 214 215 215 216 217 219 221 222 223 225 225 222 219 218 218 219 222 225 227 229 233 238 240 240 241 243 244 246 247 248 249 250 252 253 254 254 254 254 255 256 256 257 257 258 259 262 265 266 267 267 269 271 272 274 276 277 279 281 282 284 285 287 287 289 290 291 293 294 296
196 196 196 198 199 200 201 203 206 207 208 209 210 211 212 213 214 215 217 217 218 219 220 222 223 224 224 223 220 218 218 219 220 222 225 228 229 231 235 238 239 240 242 244 246 248 249 251 252 253 253 254 254 254 255 255 256 257 257 258 259 260 262 263 264 265 266 268 269 270 272 275 277 278 280 281 283 285 286 287 288 290 291 293 295 296
197 196 197 199 200 201 203 205 206 207 209 210 211 212 213 214 215 216 218 219 220 221 222 223 224 224 223 222 219 218 218 219 220 222 225 227 229 231 235 239 241 242 243 245 247 249 250 251 252 252 252 253 253 254 255 256 256 257 258 258 258 259 260 262 263 265 266 267 268 270 272 274 276 277 279 280 282 284 285 287 288 290 292 293 295 296
198 197 197 199 201 202 204 205 206 208 210 210 210 211 212 213 215 218 219 220 221 223 224 225 225 223 222 221 219 218 219 219 220 222 225 227 229 233 236 240 244 246 247 247 247 248 249 250 251 252 252 253 253 254 254 255 256 257 257 257 257 258 259 262 263 265 266 268 270 271 273 275 276 277 279 280 282 284 286 287 289 291 292 293 295 296
200 199 199 200 202 204 205 206 207 209 211 212 212 213 213 214 216 218 220 221 223 224 225 226 226 223 221 219 219 219 220 220 220 222 225 228 230 233 236 239 242 245 246 246 246 247 249 250 251 252 253 253 253 254 254 254 254 255 256 256 257 258 260 262 264 265 267 269 270 272 274 275 276 277 279 281 282 284 286 288 289 290 292 293 295 296
201 201 202 202 203 205 207 208 209 210 212 214 215 216 217 217 218 220 221 223 225 226 225 225 225 222 219 218 219 220 221 221 222 223 226 228 230 232 234 236 238 241 243 244 246 248 250 251 253 254 254 254 254 255 255 255 254 255 255 256 257 259 260 262 264 266 268 269 270 271 272 274 276 277 278 280 282 284 286 288 289 290 292 293 295 296
202 203 204 205 205 205 207 209 211 213 215 217 218 219 221 221 221 222 222 223 224 225 224 222 221 219 217 217 219 221 222 222 223 224 226 229 231 232 234 236 239 242 245 247 248 250 252 253 254 255 255 255 255 255 255 255 254 254 255 255 257 258 260 263 264 265 266 267 268 270 272 273 276 277 279 281 284 285 287 288 289 290 291 293 294 295
204 204 204 205 206 207 207 208 210 212 215 217 217 218 220 221 222 222 222 222 222 221 220 218 217 217 217 217 219 222 223 224 225 226 228 230 232 234 236 238 241 244 247 249 249 250 252 253 254 255 255 255 255 255 255 254 254 253 254 255 256 257 259 261 263 264 265 266 268 270 271 273 275 277 280 282 284 285 287 288 289 290 291 292 293 294
206 206 205 205 205 206 207 208 207 208 211 214 214 214 216 218 219 220 220 220 219 218 218 217 216 216 217 218 220 222 224 226 227 228 229 231 233 235 238 240 242 244 247 249 250 250 251 252 254 255 255 256 255 255 255 255 254 254 254 254 254 255 257 260 261 263 264 265 267 269 271 273 275 277 279 281 283 285 287 288 289 290 291 292 292 293
209 208 208 207 206 206 207 208 207 206 207 210 212 213 215 217 218 218 219 219 218 218 218 218 218 218 218 219 221 223 225 227 229 230 232 233 235 236 238 240 243 245 247 249 250 251 252 253 254 255 256 257 256 256 256 256 255 254 253 253 254 255 257 259 261 262 264 266 268 270 272 274 275 277 279 281 283 285 287 289 290 291 291 291 292 293
210 209 210 211 210 209 209 209 210 208 207 210 214 214 214 216 217 217 218 219 220 220 220 221 222 222 222 222 223 224 225 227 229 231 233 234 236 237 239 241 243 245 247 249 250 251 252 253 254 255 257 258 258 257 256 255 255 254 254 254 255 256 257 260 262 264 266 267 269 271 272 274 275 277 279 282 284 287 289 290 291 291 291 292 293 294
Height
10537 10543 10553 10567 10587 10604 10613 10620 10624 10624 10627 10634 10639 10644 10647 10652 10660 10662 10670 10681 10677 10677 10684 10690 10696 10695 10701 10711 10708 10709 10716 10721 10727 10732 10735 10738 10742 10747 10751 10755 10757 10759 10764 10767 10770 10773 10775 10776 10775 10775 10776 10778 10780 10781 10783 10785 10786 10787 10787 10786 10785 10783 10781 10782 10783 10784 10783 10784 10785 10784 10784 10784 10783 10782 10781 10779 10776 10774 10773 10771 10769 10767 10768 10769 10769 10767
10524 10534 10553 10575 10591 10597 10599 10600 10600 10606 10617 10626 10631 10638 10643 10648 10654 10654 10660 10672 10668 10667 10676 10681 10684 10687 10694 10703 10703 10705 10713 10719 10724 10727 10730 10733 10738 10743 10747 10750 10753 10757 10761 10763 10766 10768 10770 10771 10771 10771 10772 10774 10776 10778 10780 10782 10783 10782 10781 10781 10781 10779 10778 10779 10780 10780 10780 10780 10780 10779 10779 10779 10779 10779 10778 10776 10773 10769 10766 10765 10764 10763 10763 10764 10763 10762
10515 10536 10561 10576 10578 10576 10578 10582 10589 10603 10613 10619 10625 10630 10634 10638 10644 10645 10653 10664 10662 10661 10668 10672 10677 10682 10687 10695 10699 10703 10710 10714 10718 10722 10726 10730 10735 10739 10742 10745 10749 10753 10756 10759 10761 10762 10764 10767 10767 10766 10768 10770 10772 10775 10777 10779 10778 10776 10776 10779 10780 10776 10773 10774 10775 10775 10776 10776 10775 10775 10774 10774 10775 10775 10774 10773 10771 10766 10762 10759 10760 10759 10759 10759 10758 10757
10516 10542 10558 10557 10554 10559 10570 10579 10588 10599 10605 10610 10616 10619 10624 10630 10635 10641 10648 10655 10657 10657 10659 10667 10673 10675 10681 10690 10696 10701 10706 10709 10714 10719 10724 10727 10731 10733 10736 10741 10744 10747 10751 10754 10755 10756 10760 10762 10761 10762 10764 10766 10769 10772 10774 10775 10772 10772 10776 10779 10778 10773 10768 10768 10770 10771 10772 10772 10771 10771 10770 10769 10771 10772 10770 10770 10768 10765 10760 10756 10755 10755 10753 10754 10753 10752
10512 10532 10535 10533 10542 10557 10568 10575 10582 10590 10596 10602 10606 10611 10617 10623 10629 10635 10640 10645 10649 10647 10651 10660 10663 10666 10678 10687 10692 10698 10702 10705 10711 10716 10721 10724 10725 10727 10732 10737 10738 10741 10745 10747 10748 10751 10755 10756 10756 10757 10759 10762 10766 10769 10770 10769 10767 10770 10775 10777 10775 10770 10765 10763 10765 10767 10768 10767 10767 10767 10766 10764 10766 10767 10765 10764 10763 10763 10759 10754 10753 10752 10749 10749 10748 10746
10499 10512 10516 10527 10544 10555 10560 10565 10573 10582 10589 10594 10600 10606 10611 10617 10624 10628 10633 10638 10639 10640 10648 10653 10654 10663 10677 10682 10687 10694 10698 10702 10707 10712 10716 10719 10720 10724 10728 10729 10731 10736 10740 10740 10743 10746 10749 10750 10752 10753 10755 10759 10762 10764 10765 10764 10765 10770 10772 10774 10774 10766 10760 10760 10761 10762 10763 10762 10761 10761 10760 10759 10760 10761 10759 10755 10755 10757 10755 10751 10749 10747 10745 10744 10742 10741
10484 10498 10510 10524 10536 10542 10547 10555 10566 10575 10581 10587 10594 10601 10605 10613 10618 10620 10627 10632 10631 10638 10644 10644 10650 10662 10672 10677 10684 10690 10693 10697 10702 10708 10712 10714 10717 10721 10721 10722 10726 10731 10733 10734 10738 10741 10743 10745 10747 10749 10751 10754 10757 10759 10760 10759 10764 10768 10767 10771 10772 10760 10753 10757 10759 10758 10757 10756 10756 10756 10756 10756 10757 10758 10755 10749 10749 10751 10748 10745 10744 10742 10741 10739 10737 10736
10474 10492 10505 10516 10524 10529 10537 10549 10561 10569 10574 10580 10587 10594 10599 10605 10609 10613 10622 10625 10625 10631 10635 10640 10648 10656 10665 10674 10680 10684 10688 10692 10699 10706 10709 10710 10713 10714 10713 10716 10721 10725 10727 10730 10733 10735 10738 10741 10742 10744 10746 10749 10752 10754 10754 10756 10762 10767 10765 10767 10767 10756 10750 10753 10754 10753 10752 10751 10751 10751 10753 10753 10753 10754 10752 10746 10745 10745 10743 10741 10739 10738 10736 10735 10733 10733
10471 10489 10499 10507 10515 10522 10535 10546 10553 10560 10563 10569 10580 10587 10590 10596 10603 10608 10614 10617 10617 10622 10631 10639 10644 10652 10665 10672 10675 10680 10685 10691 10699 10704 10704 10705 10706 10705 10706 10712 10717 10720 10722 10725 10727 10730 10733 10735 10738 10740 10741 10744 10746 10748 10749 10751 10758 10763 10762 10761 10761 10756 10751 10749 10749 10749 10748 10747 10747 10747 10748 10748 10747 10748 10746 10742 10741 10740 10739 10737 10735 10734 10732 10731 10730 10729
10464 10478 10485 10495 10505 10517 10530 10535 10541 10549 10552 10560 10574 10580 10582 10589 10597 10600 10604 10609 10612 10618 10631 10638 10641 10651 10662 10666 10671 10678 10685 10693 10697 10697 10696 10697 10697 10698 10702 10708 10713 10716 10717 10719 10722 10725 10728 10730 10733 10735 10737 10739 10741 10742 10744 10746 10751 10757 10756 10755 10756 10754 10750 10746 10745 10745 10744 10743 10743 10742 10743 10742 10741 10741 10740 10737 10737 10736 10735 10733 10732 10730 10729 10728 10726 10725
10451 10464 10473 10486 10497 10508 10518 10525 10536 10544 10544 10555 10568 10571 10574 10581 10587 10592 10597 10603 10607 10618 10633 10638 10639 10647 10654 10661 10669 10675 10683 10687 10686 10686 10688 10689 10691 10694 10698 10703 10708 10710 10711 10714 10717 10720 10723 10726 10728 10730 10731 10734 10735 10737 10739 10740 10744 10748 10749 10748 10749 10750 10746 10743 10742 10741 10740 10739 10739 10738 10738 10737 10736 10735 10733 10732 10732 10731 10730 10729 10727 10726 10725 10724 10722 10721
10443 10455 10466 10479 10490 10501 10512 10522 10532 10533 10535 10551 10561 10561 10565 10573 10579 10585 10590 10596 10606 10622 10631 10630 10632 10639 10649 10661 10667 10670 10676 10676 10675 10678 10680 10682 10685 10687 10692 10697 10701 10704 10706 10709 10713 10716 10719 10721 10722 10724 10726 10729 10730 10732 10734 10735 10736 10739 10740 10741 10742 10743 10741 10739 10738 10736 10735 10735 10735 10735 10733 10732 10730 10729 10728 10728 10727 10726 10725 10724 10723 10722 10721 10719 10718 10717
10440 10450 10462 10473 10485 10497 10507 10517 10521 10520 10530 10545 10549 10551 10560 10567 10574 10581 10587 10598 10611 10621 10622 10622 10628 10637 10649 10660 10661 10664 10669 10668 10669 10673 10673 10676 10679 10681 10687 10692 10695 10699 10702 10705 10709 10711 10713 10715 10716 10719 10722 10724 10726 10727 10729 10729 10729 10730 10731 10733 10736 10737 10735 10734 10733 10730 10730 10731 10731 10731 10729 10726 10725 10724 10724 10723 10722 10722 10721 10720 10719 10718 10716 10715 10714 10713
10433 10443 10455 10467 10479 10491 10500 10508 10513 10519 10533 10543 10545 10554 10563 10567 10574 10583 10592 10602 10609 10612 10616 10619 10626 10636 10646 10653 10655 10658 10661 10661 10663 10665 10667 10671 10674 10678 10684 10687 10692 10697 10699 10702 10704 10704 10706 10708 10710 10714 10717 10719 10721 10723 10724 10723 10722 10722 10724 10726 10729 10731 10729 10727 10726 10726 10726 10727 10726 10727 10724 10721 10720 10720 10719 10718 10718 10717 10716 10715 10714 10713 10712 10711 10709 10708
10425 10439 10453 10464 10477 10488 10496 10505 10512 10521 10533 10539 10544 10553 10559 10564 10575 10584 10590 10597 10600 10603 10611 10616 10623 10633 10640 10646 10653 10654 10653 10655 10658 10660 10663 10667 10670 10674 10679 10684 10689 10693 10695 10696 10696 10696 10699 10701 10705 10709 10711 10713 10716 10718 10718 10716 10715 10716 10718 10720 10722 10722 10721 10720 10722 10722 10722 10721 10720 10721 10719 10716 10715 10714 10714 10713 10713 10712 10711 10710 10709 10708 10707 10706 10705 10703
10421 10437 10449 10459 10471 10482 10490 10499 10505 10513 10522 10527 10532 10540 10549 10560 10569 10573 10578 10586 10590 10597 10608 10614 10621 10630 10635 10643 10651 10647 10645 10650 10653 10654 10659 10663 10665 10669 10674 10680 10684 10687 10688 10688 10687 10689 10692 10696 10700 10703 10705 10707 10710 10712 10711 10710 10710 10711 10713 10713 10713 10714 10714 10714 10715 10715 10715 10715 10715 10714 10713 10711 10710 10709 10709 10709 10708 10707 10706 10705 10704 10703 10702 10701 10700 10699
10418 10430 10440 10451 10466 10476 10485 10493 10500 10509 10515 10519 10525 10536 10548 10555 10559 10565 10573 10581 10586 10595 10606 10611 10616 10624 10630 10638 10642 10638 10639 10645 10647 10650 10655 10656 10659 10664 10669 10674 10678 10681 10681 10679 10680 10683 10687 10692 10695 10697 10699 10702 10705 10706 10706 10705 10706 10706 10707 10706 10705 10707 10708 10707 10707 10707 10709 10710 10710 10710 10708 10707 10706 10705 10705 10705 10704 10703 10702 10701 10700 10699 10698 10697 10696 10695
10412 10425 10437 10450 10462 10470 10478 10486 10494 10500 10504 10513 10524 10534 10540 10543 10551 10563 10571 10577 10584 10592 10601 10607 10612 10619 10625 10631 10635 10633 10635 10639 10642 10645 10648 10650 10655 10660 10663 10668 10672 10673 10672 10673 10675 10678 10682 10686 10688 10690 10694 10696 10699 10701 10700 10700 10700 10701 10701 10700 10700 10701 10702 10701 10700 10702 10703 10704 10704 10704 10703 10702 10702 10702 10701 10700 10700 10699 10698 10697 10696 10694 10693 10692 10691 10690
10409 10421 10433 10444 10453 10461 10469 10478 10484 10489 10499 10511 10519 10523 10530 10540 10553 10562 10566 10574 10582 10589 10599 10605 10608 10614 10620 10627 10631 10630 10630 10634 10637 10639 10642 10646 10651 10654 10657 10662 10665 10665 10666 10668 10670 10672 10676 10679 10682 10685 10688 10691 10694 10695 10695 10694 10695 10696 10696 10695 10695 10695 10696 10696 10696 10698 10699 10698 10698 10698 10698 10697 10698 10697 10697 10696 10696 10695 10693 10693 10691 10690 10689 10688 10687 10686
10407 10418 10428 10436 10445 10453 10461 10470 10478 10487 10499 10507 10510 10518 10531 10542 10550 10556 10563 10574 10580 10586 10596 10601 10604 10611 10617 10622 10626 10626 10626 10629 10631 10633 10637 10642 10645 10648 10652 10655 10657 10659 10660 10662 10663 10667 10671 10675 10678 10680 10682 10686 10688 10689 10689 10689 10689 10691 10691 10691 10690 10690 10691 10692 10693 10694 10695 10694 10693 10693 10693 10693 10693 10693 10693 10692 10691 10690 10689 10688 10686 10685 10684 10683 10682 10681
10405 10415 10422 10429 10437 10448 10458 10470 10479 10488 10498 10505 10511 10523 10533 10539 10547 10555 10564 10572 10577 10583 10590 10595 10601 10607 10610 10615 10621 10622 10621 10622 10626 10629 10633 10636 10638 10642 10645 10648 10651 10653 10655 10656 10660 10664 10668 10672 10674 10674 10676 10681 10682 10683 10684 10684 10685 10686 10687 10686 10685 10685 10685 10686 10687 10689 10690 10690 10689 10689 10688 10688 10689 10689 10688 10687 10686 10685 10684 10683 10681 10681 10680 10679 10678 10677
10402 10411 10418 10427 10438 10449 10459 10469 10476 10486 10495 10503 10512 10522 10528 10536 10546 10555 10562 10570 10574 10578 10584 10592 10598 10600 10603 10611 10616 10617 10615 10617 10621 10624 10627 10630 10633 10636 10639 10642 10645 10647 10649 10653 10657 10661 10664 10667 10668 10668 10671 10675 10677 10678 10679 10679 10680 10681 10681 10681 10681 10680 10680 10680 10682 10683 10683 10684 10684 10684 10684 10683 10684 10683 10683 10682 10681 10679 10679 10678 10677 10676 10675 10674 10673 10672
10399 10408 10418 10428 10437 10445 10455 10464 10472 10481 10489 10495 10504 10513 10520 10532 10544 10553 10560 10565 10567 10572 10581 10591 10594 10594 10600 10608 10610 10611 10611 10611 10615 10618 10621 10625 10627 10630 10633 10636 10639 10641 10644 10649 10653 10656 10659 10662 10663 10663 10665 10669 10672 10673 10673 10675 10676 10676 10676 10676 10676 10676 10675 10675 10677 10677 10678 10679 10679 10679 10678 10678 10679 10678 10678 10677 10675 10674 10674 10673 10672 10671 10670 10669 10668 10666
10398 10407 10416 10424 10432 10443 10453 10460 10466 10473 10481 10491 10502 10511 10519 10530 10539 10544 10549 10553 10561 10571 10580 10587 10588 10590 10596 10601 10602 10605 10606 10605 10608 10612 10615 10619 10621 10624 10628 10630 10632 10635 10639 10645 10648 10650 10653 10656 10657 10657 10659 10663 10666 10668 10669 10670 10671 10671 10671 10671 10671 10671 10670 10671 10671 10672 10672 10673 10673 10674 10673 10674 10674 10673 10673 10672 10670 10670 10669 10668 10667 10666 10665 10664 10662 10661
10395 10403 10413 10422 10431 10440 10447 10453 10462 10473 10485 10496 10504 10510 10517 10523 10528 10533 10541 10551 10561 10569 10575 10579 10582 10586 10591 10593 10596 10600 10600 10600 10602 10606 10610 10613 10616 10619 10623 10624 10626 10630 10635 10639 10641 10644 10647 10649 10650 10651 10653 10657 10660 10662 10663 10665 10666 10666 10666 10666 10666 10666 10666 10666 10666 10667 10668 10668 10669 10669 10669 10669 10669 10668 10668 10667 10665 10664 10663 10662 10661 10660 10659 10657 10656 10654
10393 10402 10412 10420 10430 10441 10451 10461 10471 10480 10487 10493 10497 10503 10510 10518 10528 10537 10545 10554 10560 10564 10568 10573 10579 10581 10583 10586 10590 10594 10595 10595 10597 10601 10604 10607 10611 10615 10618 10618 10621 10625 10629 10633 10635 10637 10640 10643 10645 10646 10648 10651 10654 10656 10658 10659 10661 10661 10661 10661 10661 10662 10662 10662 10662 10663 10663 10664 10664 10664 10664 10664 10663 10663 10663 10661 10660 10659 10658 10657 10656 10654 10653 10651 10650 10648
10394 10403 10411 10419 10429 10439 10447 10455 10464 10472 10480 10488 10496 10504 10511 10519 10529 10536 10544 10552 10558 10561 10565 10571 10574 10575 10576 10581 10586 10588 10589 10590 10592 10596 10599 10603 10607 10611 10612 10614 10617 10621 10624 10627 10629 10631 10634 10637 10639 10640 10643 10646 10648 10650 10652 10654 10656 10656 10656 10656 10656 10657 10657 10657 10658 10658 10658 10659 10658 10658 10659 10658 10658 10658 10657 10656 10655 10653 10652 10651 10649 10648 10647 10645 10643 10641
10396 10403 10410 10418 10426 10432 10438 10447 10457 10466 10476 10485 10492 10500 10506 10515 10524 10532 10542 10549 10552 10556 10562 10566 10568 10570 10572 10577 10580 10582 10584 10585 10587 10591 10595 10599 10604 10606 10607 10610 10613 10616 10619 10621 10623 10626 10628 10631 10633 10636 10639 10641 10643 10645 10646 10649 10651 10651 10651 10651 10651 10652 10652 10653 10653 10653 10654 10654 10653 10653 10654 10653 10653 10653 10652 10651 10650 10648 10647 10645 10643 10642 10640 10639 10637 10635
10397 10403 10410 10416 10423 10431 10441 10451 10459 10465 10472 10478 10484 10491 10500 10509 10520 10530 10538 10542 10546 10553 10557 10560 10564 10567 10568 10571 10574 10577 10580 10582 10584 10588 10592 10596 10599 10601 10603 10606 10608 10611 10613 10614 10616 10619 10623 10626 10630 10632 10634 10636 10638 10640 10641 10643 10645 10646 10646 10646 10647 10647 10648 10648 10648 10649 10649 10649 10648 10648 10648 10648 10648 10647 10647 10646 10645 10643 10641 10639 10637 10636 10634 10633 10631 10629
10396 10403 10409 10416 10423 10432 10440 10448 10457 10464 10470 10477 10484 10491 10498 10506 10515 10523 10529 10534 10540 10546 10549 10554 10561 10562 10561 10565 10570 10574 10576 10578 10581 10585 10588 10592 10594 10596 10598 10600 10602 10604 10606 10607 10609 10614 10619 10623 10625 10627 10628 10631 10633 10635 10637 10638 10640 10641 10641 10641 10642 10642 10643 10643 10643 10644 10644 10644 10643 10643 10643 10643 10642 10642 10642 10641 10639 10638 10636 10634 10632 10630 10628 10627 10625 10623
10394 10401 10408 10415 10423 10431 10438 10446 10453 10459 10466 10473 10480 10488 10496 10504 10512 10518 10524 10529 10534 10539 10544 10551 10556 10555 10555 10560 10566 10570 10572 10573 10576 10579 10582 10586 10589 10590 10592 10594 10596 10597 10597 10599 10605 10611 10616 10617 10618 10620 10623 10626 10628 10630 10632 10633 10635 10636 10636 10636 10637 10637 10638 10638 10638 10639 10639 10639 10639 10638 10638 10638 10638 10637 10636 10635 10634 10632 10631 10629 10627 10625 10623 10621 10620 10618
10393 10399 10407 10415 10422 10429 10436 10443 10449 10454 10459 10467 10475 10485 10494 10502 10510 10516 10522 10526 10531 10536 10540 10546 10551 10549 10548 10553 10560 10564 10566 10567 10570 10573 10576 10579 10582 10584 10586 10588 10588 10588 10590 10596 10604 10608 10609 10609 10610 10614 10618 10621 10623 10625 10627 10628 10630 10631 10631 10632 10632 10632 10633 10633 10634 10634 10634 10634 10634 10634 10633 10633 10633 10632 10631 10630 10629 10627 10625 10624 10621 10619 10618 10616 10615 10613
10392 10399 10407 10413 10420 10427 10433 10439 10445 10450 10458 10468 10478 10486 10492 10499 10505 10511 10517 10522 10527 10531 10536 10543 10546 10540 10539 10547 10555 10557 10560 10562 10564 10567 10571 10574 10576 10579 10580 10581 10581 10583 10589 10596 10600 10601 10601 10602 10604 10608 10613 10616 10618 10621 10622 10624 10625 10626 10627 10627 10627 10627 10628 10629 10629 10630 10629 10629 10630 10629 10628 10628 10627 10627 10626 10625 10623 10622 10620 10619 10616 10614 10613 10611 10610 10608
10392 10399 10405 10411 10418 10424 10430 10437 10443 10452 10462 10472 10478 10482 10487 10493 10498 10504 10510 10515 10520 10526 10532 10537 10536 10532 10535 10544 10548 10550 10555 10558 10560 10563 10566 10569 10571 10573 10574 10574 10577 10582 10587 10592 10593 10593 10594 10596 10599 10603 10607 10611 10614 10616 10618 10619 10620 10622 10622 10622 10622 10622 10623 10624 10625 10625 10625 10625 10624 10624 10624 10623 10622 10622 10621 10619 10618 10617 10615 10614 10612 10610 10608 10606 10604 10602
10391 10397 10404 10410 10416 10422 10429 10437 10445 10454 10462 10466 10469 10474 10481 10487 10493 10499 10504 10508 10514 10520 10525 10528 10529 10528 10531 10538 10542 10546 10551 10555 10557 10560 10561 10563 10566 10566 10567 10569 10574 10579 10582 10585 10585 10586 10588 10591 10594 10598 10602 10606 10608 10610 10612 10614 10615 10617 10618 10618 10618 10618 10619 10620 10620 10620 10620 10620 10619 10619 10619 10618 10617 10616 10615 10614 10613 10612 10610 10609 10607 10605 10603 10601 10599 10598
10390 10396 10402 10408 10414 10421 10428 10435 10443 10450 10454 10458 10464 10471 10477 10483 10489 10496 10502 10506 10512 10517 10520 10523 10525 10524 10527 10533 10539 10543 10547 10550 10553 10555 10555 10557 10559 10559 10561 10565 10569 10573 10576 10577 10578 10580 10584 10587 10590 10593 10597 10600 10603 10605 10607 10609 10610 10612 10613 10613 10614 10614 10614 10615 10615 10615 10615 10614 10614 10614 10614 10613 10612 10611 10610 10609 10608 10607 10606 10604 10602 10600 10598 10596 10594 10593
10390 10396 10401 10407 10413 10420 10427 10434 10440 10445 10449 10455 10462 10468 10473 10480 10486 10492 10496 10500 10505 10510 10514 10518 10520 10521 10524 10530 10535 10538 10541 10545 10548 10549 10550 10551 10552 10553 10555 10560 10565 10569 10570 10572 10574 10576 10578 10581 10584 10588 10592 10596 10598 10600 10602 10603 10605 10606 10607 10609 10610 10610 10610 10610 10609 10609 10609 10609 10609 10609 10608 10608 10607 10606 10605 10604 10603 10602 10601 10599 10597 10595 10593 10591 10590 10588
10390 10395 10400 10406 10413 10419 10425 10432 10437 10441 10446 10452 10458 10464 10470 10475 10480 10485 10490 10494 10499 10504 10508 10512 10516 10518 10520 10525 10529 10533 10536 10541 10543 10544 10545 10546 10548 10550 10552 10557 10561 10563 10565 10566 10568 10569 10572 10577 10581 10585 10588 10591 10593 10595 10597 10598 10600 10601 10602 10604 10605 10605 10605 10605 10604 10604 10604 10604 10604 10604 10603 10602 10601 10600 10600 10599 10598 10597 10595 10594 10592 10589 10587 10586 10585 10583
10389 10394 10400 10405 10411 10417 10423 10429 10434 10438 10443 10449 10454 10460 10465 10470 10475 10480 10485 10490 10496 10500 10503 10507 10510 10512 10514 10519 10524 10527 10532 10537 10539 10538 10539 10542 10545 10546 10549 10552 10555 10557 10559 10561 10563 10565 10570 10574 10577 10580 10583 10585 10588 10590 10592 10593 10595 10596 10598 10599 10599 10600 10600 10600 10600 10599 10599 10599 10598 10598 10597 10597 10596 10596 10595 10594 10593 10592 10590 10589 10587 10584 10582 10581 10579 10578
10388 10393 10399 10405 10410 10415 10421 10426 10431 10436 10441 10446 10451 10457 10461 10466 10471 10477 10482 10486 10491 10494 10497 10501 10505 10506 10508 10513 10518 10522 10527 10530 10530 10530 10533 10538 10542 10544 10544 10546 10549 10552 10554 10557 10560 10563 10566 10569 10572 10575 10578 10580 10582 10584 10586 10588 10589 10591 10592 10593 10594 10594 10595 10595 10595 10594 10594 10593 10593 10592 10592 10592 10591 10590 10589 10589 10588 10586 10585 10584 10582 10580 10578 10576 10574 10573
10386 10392 10398 10404 10410 10414 10419 10424 10428 10432 10438 10443 10448 10453 10457 10463 10469 10474 10477 10481 10484 10488 10491 10495 10499 10502 10504 10507 10512 10516 10519 10521 10522 10525 10529 10534 10539 10540 10539 10540 10543 10547 10550 10554 10556 10558 10561 10564 10568 10571 10573 10575 10577 10578 10580 10582 10583 10585 10586 10587 10588 10589 10590 10590 10590 10589 10588 10588 10587 10587 10587 10586 10586 10585 10584 10583 10582 10581 10580 10578 10577 10575 10573 10571 10569 10568
10386 10392 10397 10403 10408 10413 10418 10422 10426 10430 10435 10440 10445 10450 10455 10461 10466 10469 10471 10475 10479 10482 10486 10490 10494 10497 10499 10501 10505 10509 10513 10516 10519 10523 10526 10530 10534 10534 10533 10535 10539 10543 10547 10549 10551 10554 10557 10560 10563 10566 10568 10569 10571 10572 10574 10576 10577 10579 10580 10581 10582 10584 10584 10584 10583 10583 10584 10583 10583 10582 10582 10581 10581 10580 10579 10578 10577 10576 10575 10573 10572 10571 10569 10567 10564 10562
10383 10389 10394 10399 10404 10409 10414 10418 10423 10428 10432 10437 10442 10447 10453 10457 10460 10462 10465 10470 10474 10478 10482 10485 10489 10492 10494 10496 10500 10505 10508 10512 10515 10518 10520 10525 10529 10530 10531 10534 10537 10540 10543 10545 10548 10552 10554 10556 10558 10560 10562 10564 10566 10567 10569 10570 10572 10573 10574 10576 10577 10577 10578 10578 10578 10578 10578 10578 10577 10577 10577 10576 10576 10575 10574 10573 10572 10571 10570 10568 10567 10565 10563 10561 10559 10557
10381 10386 10391 10396 10401 10405 10409 10415 10420 10424 10427 10432 10437 10442 10446 10450 10454 10457 10461 10466 10470 10473 10477 10480 10484 10487 10489 10492 10496 10500 10503 10507 10511 10513 10515 10519 10524 10528 10531 10534 10535 10537 10538 10541 10544 10547 10549 10550 10553 10554 10556 10559 10561 10562 10563 10565 10566 10567 10568 10569 10570 10571 10571 10572 10573 10572 10572 10572 10572 10571 10571 10571 10570 10570 10569 10567 10566 10566 10564 10563 10561 10560 10558 10556 10554 10553
10380 10384 10388 10392 10397 10401 10406 10411 10415 10418 10422 10427 10432 10436 10439 10444 10449 10453 10458 10462 10465 10468 10472 10476 10479 10483 10486 10489 10493 10496 10499 10503 10507 10509 10511 10515 10520 10526 10529 10531 10531 10530 10530 10533 10538 10541 10543 10545 10547 10549 10551 10553 10555 10556 10558 10559 10560 10561 10562 10563 10564 10565 10566 10567 10567 10567 10567 10566 10566 10565 10565 10564 10564 10564 10563 10562 10561 10560 10558 10557 10555 10554 10552 10550 10549 10547
10377 10381 10385 10388 10393 10397 10402 10407 10410 10414 10418 10422 10427 10431 10436 10441 10445 10448 10453 10457 10459 10463 10468 10472 10475 10479 10482 10486 10489 10491 10495 10499 10503 10505 10508 10511 10515 10521 10524 10524 10523 10522 10522 10527 10532 10536 10538 10541 10542 10543 10545 10547 10549 10552 10553 10553 10555 10556 10556 10557 10558 10559 10560 10560 10561 10561 10561 10560 10560 10559 10559 10558 10558 10558 10557 10556 10555 10554 10553 10551 10549 10548 10546 10545 10543 10542
10376 10379 10383 10387 10390 10394 10399 10404 10408 10412 10415 10419 10424 10429 10433 10436 10439 10443 10447 10451 10454 10458 10462 10466 10470 10474 10478 10481 10484 10487 10490 10494 10498 10501 10504 10506 10510 10514 10518 10519 10518 10518 10519 10524 10528 10531 10533 10535 10536 10537 10539 10541 10544 10546 10547 10548 10549 10549 10549 10551 10552 10553 10554 10554 10555 10555 10555 10554 10554 10553 10553 10552 10552 10551 10551 10550 10549 10548 10547 10545 10544 10542 10540 10539 10537 10536
10375 10379 10382 10386 10389 10393 10397 10401 10405 10409 10413 10417 10422 10426 10429 10432 10435 10439 10443 10447 10450 10453 10457 10461 10465 10469 10472 10476 10480 10483 10486 10489 10493 10497 10500 10502 10505 10509 10512 10514 10515 10516 10518 10520 10523 10526 10528 10529 10530 10531 10532 10534 10537 10540 10542 10542 10541 10541 10542 10544 10545 10547 10548 10548 10549 10549 10548 10548 10548 10548 10547 10547 10546 10545 10544 10543 10542 10541 10540 10539 10538 10536 10534 10533 10531 10529
10374 10378 10382 10385 10388 10392 10396 10399 10403 10407 10411 10415 10419 10422 10425 10428 10432 10435 10440 10444 10447 10449 10453 10456 10460 10463 10467 10471 10475 10478 10482 10485 10488 10491 10494 10497 10500 10503 10506 10508 10510 10512 10514 10515 10517 10520 10521 10522 10523 10524 10525 10527 10530 10534 10535 10535 10534 10535 10536 10537 10538 10540 10541 10542 10543 10542 10542 10542 10542 10542 10541 10541 10540 10539 10538 10537 10536 10536 10535 10534 10532 10530 10529 10527 10525 10522
10373 10377 10381 10385 10389 10391 10394 10398 10402 10406 10410 10414 10417 10419 10422 10425 10429 10432 10436 10439 10442 10445 10448 10452 10455 10459 10463 10467 10470 10474 10477 10480 10482 10485 10488 10490 10493 10496 10499 10502 10504 10506 10508 10509 10512 10513 10514 10515 10517 10518 10518 10520 10524 10527 10529 10528 10527 10528 10529 10530 10532 10533 10535 10536 10536 10536 10536 10536 10536 10536 10536 10535 10534 10533 10532 10531 10531 10530 10529 10528 10526 10524 10522 10520 10518 10516
10372 10376 10380 10384 10387 10390 10393 10396 10399 10403 10408 10411 10413 10415 10418 10421 10425 10428 10432 10436 10439 10442 10446 10449 10452 10455 10458 10462 10465 10468 10470 10473 10476 10479 10481 10484 10487 10489 10492 10495 10498 10500 10501 10503 10505 10506 10507 10509 10510 10511 10512 10513 10517 10521 10521 10520 10520 10520 10522 10523 10525 10527 10528 10528 10528 10529 10529 10529 10529 10530 10529 10529 10528 10527 10526 10525 10525 10524 10522 10521 10519 10517 10515 10513 10511 10508